Tracking 28790 objects as of 19-Apr-2024
HD Live streaming from Space Station
objects crossing your sky now

CZ-6A DEB

Track CZ-6A DEB now!
10-day predictions


NORAD ID: 55215
Int'l Code: 2022-151WG
Perigee: 693.5 km
Apogee: 832.4 km
Inclination: 98.7 °
Period: 99.9 minutes
Semi major axis: 7133 km
RCS: Unknown
Launch date: November 11, 2022
Source: People's Republic of China (PRC)
Launch site: Taiyaun Space Center, China (TSC)

Note: This is SATELLITE DEBRIS
Your satellite tracking list
Your tracking list is empty




NASA's NSSDC Master Catalog

Two Line Element Set (TLE):
1 55215U 22151WG  24109.03532923  .00020620  00000-0  60843-2 0  9995
2 55215  98.6832 127.0365 0097379 211.4812 148.0527 14.40814108 69445
Source of the keplerian elements: AFSPC